Temp
46 45 44 43 43 44 43 41 40 40 40 39 38 38 37 37 37 36 37 38 37 37 38 37 39 40 38 38 38 38 37 37 33 34 35 36 34 34 33 32 32 35 37
44 44 42 41 41 41 40 40 39 39 39 38 38 37 37 37 37 37 36 38 36 36 37 37 38 40 38 38 37 37 36 36 33 31 33 33 33 34 29 29 32 34 34
42 42 40 38 38 37 36 36 37 36 35 36 37 36 36 35 36 36 36 35 34 37 37 36 37 38 36 37 37 36 35 36 34 32 32 33 33 33 30 26 26 28 34
38 39 38 36 37 36 35 35 35 35 35 35 35 35 34 34 34 34 34 35 33 33 34 36 37 36 36 36 35 35 34 33 32 32 32 33 32 32 28 29 28 25 32
34 35 35 35 34 33 33 34 32 34 34 34 33 33 33 34 35 33 34 36 34 30 30 33 37 37 36 35 35 34 34 33 32 33 32 32 31 30 28 29 28 24 31
32 34 35 34 32 33 34 33 33 32 31 32 33 32 31 33 36 38 37 34 34 31 29 29 32 32 34 37 38 38 36 33 32 30 30 30 30 29 29 28 27 27 27
33 33 34 34 34 33 34 33 33 33 33 33 33 31 31 31 37 36 37 34 32 31 31 30 30 32 31 31 36 36 35 36 36 31 30 30 28 25 28 27 27 26 27
33 33 34 34 34 33 32 32 32 32 32 31 30 31 30 31 38 38 36 31 29 29 29 29 30 30 30 30 30 31 33 32 31 30 28 27 27 29 29 28 27 26 28
32 33 34 34 34 33 32 32 32 31 31 31 31 30 30 30 38 38 36 29 29 27 26 26 27 28 33 35 30 28 30 32 34 35 35 34 33 33 31 22 20 13 28
31 32 35 34 35 33 33 33 34 33 32 32 30 31 30 30 38 38 35 31 28 28 24 23 29 29 35 36 26 25 22 29 29 20 21 26 26 24 30 26 25 22 24
31 33 34 34 34 35 35 34 33 32 31 30 29 29 30 30 34 38 37 31 30 27 27 25 26 34 35 36 32 24 24 27 22 16 13 13 15 17 24 25 25 19 21
27 28 33 34 34 35 34 32 31 31 29 28 28 27 29 28 32 38 38 35 34 30 28 26 25 35 35 36 31 33 34 24 15 15 14 13 12 13 13 19 23 19 15
25 26 32 34 34 34 33 32 30 31 30 29 29 29 28 28 30 37 38 38 36 30 28 30 32 35 36 35 33 34 23 16 14 14 13 13 13 14 12 12 23 23 22
22 25 31 32 32 33 34 33 33 31 31 30 30 30 28 27 28 32 34 35 34 32 33 30 33 33 31 27 25 27 19 17 18 16 15 13 12 12 12 12 15 20 24
21 25 30 32 32 31 33 32 33 34 35 33 33 33 30 28 30 33 33 32 33 31 24 22 23 20 21 18 17 17 13 13 16 14 14 12 12 12 13 11 22 20 23
19 25 30 31 31 31 32 31 36 36 37 38 38 36 34 38 37 35 35 36 36 34 23 23 25 24 23 21 19 17 14 15 16 15 12 10 11 11 12 11 12 9 10
16 23 28 29 30 30 31 30 29 33 37 38 38 37 37 37 37 36 36 36 36 34 24 27 27 25 25 22 21 20 18 20 16 17 16 11 9 8 10 9 9 9 6
16 23 27 29 30 30 31 31 31 30 29 31 36 36 37 37 37 36 37 36 31 33 28 28 27 27 26 23 22 22 20 18 18 17 14 12 11 10 8 8 7 6 4
17 23 26 27 28 29 30 30 31 30 30 30 31 34 34 37 37 37 37 31 29 30 29 27 28 28 26 25 23 23 24 22 19 17 13 11 9 9 4 5 6 6 5
19 24 26 27 27 27 29 29 29 29 29 29 29 29 31 31 31 31 30 26 29 29 29 28 28 28 26 26 25 23 23 20 18 16 14 13 10 9 10 6 7 4 2
23 24 26 26 26 27 27 27 28 27 24 24 25 27 31 30 30 31 31 30 30 29 29 29 29 28 27 25 24 22 22 21 18 16 14 12 9 8 5 8 3 1 4
19 19 19 19 20 20 19 20 20 19 18 18 17 21 24 20 19 18 18 18 19 22 29 31 29 27 25 24 24 22 21 19 17 16 15 13 12 10 9 5 4 -1 0
16 16 15 15 16 16 15 15 15 15 14 14 14 14 14 13 14 14 14 15 16 17 19 25 26 24 23 21 21 22 20 19 19 18 17 14 13 13 11 8 6 -1 0
14 13 13 13 13 12 12 12 12 12 11 11 11 10 10 10 11 11 11 13 14 14 16 17 19 21 20 19 17 17 18 19 19 19 18 17 16 15 12 10 9 2 1
12 11 10 10 10 9 9 9 8 8 8 8 8 8 8 8 8 8 9 10 10 11 11 13 15 16 17 18 18 20 22 21 20 20 19 18 17 15 14 14 10 8 2
8 8 7 8 7 7 6 5 5 5 4 4 4 4 4 4 4 4 5 6 6 6 7 8 9 10 13 15 17 19 20 20 18 18 18 17 16 15 15 14 12 10 8
MSLP
1012.97 1012.86 1013.01 1013.41 1013.84 1014.39 1014.97 1015.64 1016.24 1016.73 1017.14 1017.74 1018.34 1018.87 1019.60 1020.17 1020.58 1020.98 1021.38 1021.90 1022.34 1022.81 1023.12 1023.46 1023.80 1024.17 1024.26 1024.14 1024.12 1024.26 1024.51 1024.59 1024.92 1024.91 1024.78 1024.25 1024.00 1023.75 1023.62 1023.37 1023.17 1022.76 1022.42
1013.48 1013.17 1013.18 1013.29 1013.68 1014.15 1014.64 1015.16 1015.82 1016.50 1017.04 1017.45 1018.17 1018.73 1019.32 1019.85 1020.36 1020.79 1021.29 1021.88 1022.36 1022.88 1023.08 1023.49 1023.84 1024.08 1024.24 1024.13 1024.25 1024.42 1024.60 1024.79 1024.91 1025.04 1024.84 1024.53 1024.18 1023.85 1023.99 1023.81 1023.53 1023.11 1022.79
1013.83 1013.59 1013.48 1013.51 1013.74 1014.12 1014.44 1014.92 1015.65 1016.30 1016.88 1017.41 1018.08 1018.54 1018.97 1019.52 1020.15 1020.67 1021.12 1021.65 1022.12 1022.78 1023.19 1023.48 1023.59 1023.93 1024.22 1024.25 1024.36 1024.52 1024.68 1024.82 1024.89 1025.00 1024.99 1024.61 1024.28 1024.33 1024.12 1024.12 1023.86 1023.53 1022.92
1014.35 1013.82 1013.70 1013.68 1013.76 1013.96 1014.30 1014.80 1015.42 1016.12 1016.75 1017.27 1017.82 1018.20 1018.60 1019.20 1019.81 1020.37 1020.92 1021.43 1022.06 1022.63 1023.15 1023.42 1023.59 1023.82 1024.01 1024.23 1024.37 1024.53 1024.73 1024.87 1025.00 1024.84 1024.84 1024.83 1024.64 1024.56 1024.45 1024.49 1024.20 1023.97 1023.34
1014.83 1014.21 1013.62 1013.50 1013.64 1013.99 1014.50 1014.96 1015.45 1016.10 1016.62 1017.06 1017.68 1018.13 1018.53 1019.15 1019.68 1020.18 1020.72 1021.32 1021.99 1022.55 1023.05 1023.27 1023.45 1023.69 1024.05 1024.25 1024.42 1024.59 1024.75 1024.74 1024.89 1024.75 1024.93 1025.13 1024.94 1024.85 1024.87 1024.91 1024.59 1024.10 1023.69
1014.69 1014.20 1013.62 1013.52 1013.72 1014.02 1014.46 1014.98 1015.51 1016.11 1016.61 1017.03 1017.57 1017.88 1018.40 1018.93 1019.36 1019.83 1020.43 1021.10 1021.83 1022.31 1022.94 1023.24 1023.39 1023.91 1024.21 1024.11 1024.16 1024.30 1024.43 1024.60 1024.66 1024.84 1025.05 1025.24 1025.21 1025.17 1025.11 1025.07 1024.84 1024.56 1024.15
1014.25 1013.78 1013.35 1013.06 1013.32 1013.74 1014.24 1014.76 1015.27 1015.84 1016.44 1016.87 1017.31 1017.63 1017.99 1018.47 1019.06 1019.61 1020.24 1020.81 1021.55 1021.92 1022.53 1023.01 1023.29 1023.66 1024.01 1024.25 1023.96 1024.21 1024.35 1024.40 1024.49 1024.99 1025.02 1025.34 1025.48 1025.46 1025.27 1025.15 1025.07 1025.03 1024.66
1013.57 1013.17 1012.85 1012.62 1012.64 1013.12 1013.70 1014.20 1014.75 1015.38 1015.86 1016.32 1016.82 1017.19 1017.57 1018.03 1018.55 1019.27 1019.99 1020.66 1021.25 1021.67 1022.16 1022.62 1022.93 1023.34 1023.54 1024.00 1023.91 1024.10 1024.34 1024.57 1024.76 1024.98 1025.11 1025.33 1025.49 1025.31 1025.31 1025.33 1025.29 1025.15 1024.88
1013.10 1012.59 1012.15 1011.98 1011.95 1012.30 1012.83 1013.38 1014.01 1014.72 1015.38 1015.73 1016.07 1016.62 1017.04 1017.64 1018.10 1018.77 1019.63 1020.41 1021.04 1021.51 1022.09 1022.56 1022.79 1023.04 1023.08 1023.42 1023.66 1024.01 1024.24 1024.40 1024.60 1024.65 1024.78 1024.87 1025.04 1024.96 1025.08 1025.38 1025.44 1025.46 1025.05
1012.73 1012.09 1011.51 1011.23 1011.24 1011.36 1011.77 1012.36 1012.98 1013.73 1014.43 1015.18 1015.77 1016.13 1016.53 1017.14 1017.70 1018.37 1019.19 1019.93 1020.70 1021.31 1021.99 1022.36 1022.55 1022.60 1022.75 1022.99 1023.40 1023.80 1024.11 1024.30 1024.76 1024.99 1025.36 1025.11 1025.19 1025.31 1025.27 1025.46 1025.53 1025.55 1025.37
1012.51 1011.63 1010.72 1010.32 1010.46 1010.58 1010.96 1011.52 1012.23 1013.09 1013.96 1014.75 1015.44 1015.90 1016.24 1016.60 1017.09 1017.81 1018.48 1019.22 1019.74 1020.68 1021.34 1021.99 1021.97 1022.16 1022.32 1022.57 1023.15 1023.46 1023.72 1024.19 1024.72 1025.05 1025.35 1025.63 1025.84 1025.84 1025.61 1025.67 1025.65 1025.74 1025.65
1012.41 1011.31 1010.21 1009.66 1009.64 1009.91 1010.35 1011.00 1011.59 1012.46 1013.37 1014.27 1015.00 1015.65 1015.96 1016.31 1016.62 1017.27 1017.83 1018.53 1019.16 1019.83 1020.51 1021.04 1021.37 1021.64 1021.97 1022.20 1022.72 1023.07 1023.24 1024.08 1024.69 1025.13 1025.66 1026.06 1026.09 1026.16 1026.32 1026.00 1025.92 1026.08 1026.02
1011.97 1010.93 1009.69 1008.95 1008.90 1009.13 1009.68 1010.29 1011.00 1011.63 1012.55 1013.49 1014.25 1014.75 1015.42 1015.99 1016.32 1016.70 1017.31 1017.97 1018.77 1019.60 1019.90 1020.33 1020.80 1021.32 1021.68 1022.10 1022.49 1022.70 1023.71 1024.27 1024.70 1025.42 1025.77 1025.97 1025.72 1025.83 1026.06 1026.25 1025.96 1026.06 1026.01
1011.49 1010.35 1009.02 1008.28 1008.27 1008.57 1009.01 1009.50 1009.94 1010.39 1011.30 1012.27 1013.01 1013.72 1014.46 1015.21 1015.77 1016.17 1016.84 1017.52 1018.38 1019.12 1019.61 1020.20 1020.85 1021.24 1021.51 1022.06 1022.47 1022.75 1023.55 1023.98 1024.33 1024.92 1025.38 1025.23 1025.50 1025.68 1026.00 1026.33 1026.17 1026.16 1026.19
1010.97 1009.73 1008.39 1007.70 1007.63 1007.91 1008.18 1008.62 1008.90 1009.17 1009.22 1010.12 1010.94 1011.70 1012.79 1013.91 1014.07 1014.72 1015.53 1016.41 1017.33 1018.20 1019.32 1020.13 1020.84 1021.52 1022.02 1022.43 1022.69 1023.07 1023.45 1023.75 1024.15 1024.50 1024.89 1025.25 1025.46 1025.62 1026.02 1026.38 1026.35 1026.41 1026.56
1010.67 1009.22 1007.89 1007.20 1007.13 1007.33 1007.63 1008.24 1008.51 1008.79 1009.18 1009.50 1010.09 1010.62 1011.46 1011.90 1012.74 1013.67 1014.70 1015.69 1016.73 1017.73 1019.01 1019.61 1020.24 1020.85 1021.38 1021.91 1022.39 1022.94 1023.30 1023.53 1023.82 1024.24 1024.57 1024.97 1025.60 1025.91 1026.34 1026.32 1026.39 1026.93 1027.27
1010.42 1009.03 1007.68 1006.99 1006.69 1006.86 1007.14 1007.57 1008.13 1008.70 1008.92 1009.17 1009.59 1010.13 1010.78 1011.32 1012.10 1012.98 1013.80 1014.79 1016.06 1017.33 1017.93 1018.45 1018.91 1019.72 1020.28 1020.86 1021.50 1021.93 1022.32 1022.74 1023.19 1023.74 1024.17 1024.64 1025.05 1025.58 1026.23 1026.90 1027.17 1027.41 1027.79
1009.79 1008.46 1007.22 1006.59 1006.46 1006.52 1006.79 1007.14 1007.70 1008.20 1008.53 1008.92 1009.37 1009.80 1010.40 1011.10 1011.62 1012.64 1013.48 1014.65 1015.77 1016.54 1016.96 1017.30 1017.84 1018.53 1019.21 1019.78 1020.59 1021.02 1021.57 1022.26 1022.91 1023.28 1023.77 1024.18 1024.69 1025.32 1026.16 1026.72 1027.16 1027.43 1027.81
1009.16 1007.83 1006.80 1006.31 1006.24 1006.32 1006.70 1006.99 1007.54 1008.07 1008.62 1009.04 1009.42 1009.91 1010.35 1010.82 1011.46 1012.43 1013.20 1013.81 1014.71 1015.47 1016.01 1016.52 1017.09 1017.88 1018.47 1018.86 1019.51 1020.11 1020.63 1021.34 1021.98 1022.70 1023.28 1023.77 1024.32 1024.93 1025.79 1026.41 1026.91 1027.39 1027.75
1008.27 1007.29 1006.62 1006.29 1006.26 1006.43 1006.68 1007.00 1007.54 1008.05 1008.58 1009.10 1009.55 1009.90 1010.46 1011.20 1011.75 1012.37 1012.95 1013.84 1014.48 1014.90 1015.34 1015.95 1016.57 1017.19 1017.76 1018.12 1018.70 1019.35 1020.04 1020.79 1021.52 1022.16 1022.76 1023.30 1023.84 1024.36 1025.22 1025.92 1026.56 1027.14 1027.59
1007.53 1007.01 1006.59 1006.52 1006.54 1006.70 1006.98 1007.18 1007.64 1008.33 1009.12 1009.62 1010.01 1010.33 1010.79 1011.30 1011.90 1012.57 1013.42 1013.89 1014.15 1014.57 1015.06 1015.57 1015.97 1016.51 1016.92 1017.36 1017.90 1018.68 1019.36 1020.04 1020.77 1021.49 1022.22 1022.90 1023.53 1024.32 1024.56 1025.18 1026.06 1026.55 1027.19
1007.66 1007.55 1007.45 1007.49 1007.59 1007.73 1008.16 1008.45 1008.95 1009.72 1010.48 1011.01 1011.53 1011.70 1011.93 1012.49 1013.14 1013.78 1014.36 1014.65 1014.85 1014.86 1014.74 1014.99 1015.47 1015.91 1016.28 1016.77 1017.39 1018.13 1018.85 1019.52 1020.27 1020.97 1021.73 1022.46 1023.12 1023.63 1024.25 1025.06 1025.86 1026.48 1027.15
1008.29 1008.33 1008.54 1008.69 1008.85 1009.09 1009.53 1010.13 1010.63 1011.22 1011.87 1012.45 1012.93 1013.26 1013.72 1014.28 1014.87 1015.27 1015.54 1015.74 1015.69 1015.53 1015.32 1015.00 1015.42 1015.93 1016.34 1016.87 1017.34 1017.84 1018.49 1019.03 1019.54 1020.26 1021.11 1021.97 1022.70 1023.26 1023.87 1024.65 1025.44 1026.52 1027.22
1009.15 1009.44 1009.57 1009.95 1010.33 1010.83 1011.34 1011.87 1012.42 1012.94 1013.45 1014.10 1014.55 1015.01 1015.42 1015.82 1016.13 1016.36 1016.53 1016.60 1016.59 1016.56 1016.42 1016.34 1016.42 1016.68 1017.11 1017.49 1017.86 1018.20 1018.55 1019.05 1019.54 1020.12 1020.72 1021.47 1022.24 1022.92 1023.64 1024.31 1024.97 1025.76 1026.69
1010.68 1010.76 1011.05 1011.47 1012.05 1012.63 1013.10 1013.59 1014.07 1014.61 1015.16 1015.62 1016.01 1016.49 1016.92 1017.21 1017.44 1017.62 1017.70 1017.72 1017.68 1017.65 1017.72 1017.70 1017.73 1017.90 1018.05 1018.23 1018.46 1018.63 1018.86 1019.25 1019.68 1020.12 1020.78 1021.36 1022.02 1022.70 1023.42 1024.11 1024.82 1025.61 1026.42
1012.21 1012.27 1012.70 1013.08 1013.60 1014.18 1014.62 1015.20 1015.86 1016.36 1016.80 1017.29 1017.71 1018.00 1018.34 1018.70 1018.94 1018.96 1018.95 1018.87 1018.85 1018.95 1019.10 1019.21 1019.24 1019.22 1019.19 1019.22 1019.34 1019.46 1019.63 1019.85 1020.20 1020.53 1020.95 1021.46 1022.14 1022.91 1023.53 1024.16 1024.88 1025.51 1026.12
Wind_Speed
4 5 6 7 8 9 9 8 9 9 11 11 10 10 9 8 7 7 6 6 5 5 4 4 5 4 3 3 2 1 1 1 1 2 1 4 3 5 5 5 4 6 6
7 5 6 6 7 9 10 9 9 10 10 11 11 11 10 9 8 8 8 8 7 6 7 5 5 3 3 3 2 2 1 1 1 3 2 2 2 3 4 5 5 5 4
9 5 5 6 7 7 8 9 9 10 9 9 10 11 10 9 9 8 7 7 7 7 6 5 6 5 4 3 3 2 1 1 0 1 2 2 2 2 5 3 3 5 3
11 6 6 6 7 8 8 9 10 9 10 10 9 9 9 9 9 8 8 7 6 6 6 7 6 5 5 5 4 3 1 0 1 1 2 3 2 4 2 6 5 3 2
10 8 7 6 4 5 6 7 7 9 8 8 9 8 8 9 7 8 8 8 7 6 5 6 8 7 6 6 4 4 3 2 1 1 3 3 2 3 5 4 2 3 1
9 10 7 5 6 7 8 8 8 7 7 9 9 10 11 8 17 17 13 9 9 7 7 5 6 7 7 8 7 6 4 3 2 0 1 2 2 2 3 4 3 3 3
10 10 9 8 9 9 9 10 11 11 10 11 11 10 10 8 20 20 18 8 8 7 7 7 5 4 6 5 6 5 4 4 4 3 1 2 3 1 3 3 2 2 2
12 11 10 10 11 11 12 13 12 10 14 12 11 10 10 8 21 20 16 7 5 6 6 7 7 6 6 6 5 5 4 3 3 2 2 2 2 1 2 2 3 3 3
13 12 10 11 12 12 13 14 12 11 10 11 10 11 11 9 20 20 15 7 6 6 5 5 6 6 10 11 5 5 5 5 3 0 3 3 2 3 5 1 2 4 0
13 13 11 11 13 13 14 14 12 11 10 8 9 10 10 11 19 20 15 7 7 6 4 5 10 8 13 12 6 6 5 5 4 2 2 2 4 4 6 4 2 1 2
13 14 12 10 13 13 13 12 11 11 9 9 9 8 10 10 13 21 22 9 7 7 6 5 4 15 15 13 11 5 6 6 3 3 0 1 2 2 3 3 3 1 1
14 14 13 11 10 9 12 10 11 11 10 9 9 6 6 7 12 20 21 16 13 8 8 5 6 17 16 14 9 11 9 6 3 2 2 1 1 1 1 2 1 1 1
14 15 13 10 10 10 12 12 10 12 10 9 9 8 7 6 7 18 20 20 16 6 4 9 14 17 17 12 12 12 6 3 3 2 2 2 3 2 1 2 2 1 2
14 14 12 9 9 10 9 10 11 11 11 10 10 9 7 7 7 7 9 10 12 8 9 6 9 9 9 7 5 6 3 3 4 3 3 2 1 2 1 1 2 2 2
12 12 11 7 9 9 10 10 10 11 15 13 12 11 11 9 12 17 15 10 10 10 8 3 3 3 4 3 1 3 2 2 3 3 3 2 1 2 1 1 2 1 2
11 9 7 5 6 7 8 6 13 12 17 15 15 13 8 7 18 24 23 21 20 22 4 6 6 7 8 7 6 5 3 4 3 3 3 3 3 3 2 1 2 3 3
10 10 7 4 5 7 7 8 8 8 17 15 16 16 14 13 19 22 24 24 23 22 4 9 8 9 8 7 7 6 5 6 4 4 4 4 3 3 3 2 2 3 2
10 14 7 5 4 5 7 7 7 8 9 8 12 13 15 15 17 20 20 19 12 16 6 7 8 8 7 7 7 7 5 5 5 5 4 4 4 4 3 3 2 4 3
9 7 5 4 4 5 5 6 7 7 6 7 6 6 9 14 16 17 20 8 10 11 8 6 6 6 6 6 6 6 7 7 6 6 4 5 5 4 3 3 4 4 5
9 8 5 2 4 4 5 6 7 7 7 6 6 5 6 6 7 7 5 4 6 6 5 6 6 6 6 7 6 6 6 6 6 6 5 5 5 4 4 5 4 4 3
5 2 3 4 4 4 5 6 6 7 7 6 5 4 9 5 5 6 6 5 5 5 6 6 6 7 6 6 6 6 6 6 6 6 6 5 5 4 3 4 4 3 5
3 4 5 5 6 8 8 8 9 9 8 8 7 9 16 7 7 6 5 5 4 3 1 6 5 5 5 6 6 6 6 6 6 6 6 6 5 4 5 4 4 3 4
5 7 7 7 8 10 10 9 9 9 9 8 7 7 8 7 7 6 6 5 5 5 5 4 4 4 3 3 4 5 6 7 7 7 8 7 6 5 4 4 5 3 3
8 8 9 9 8 9 9 10 10 12 10 9 8 8 7 7 7 8 6 6 6 6 7 7 6 6 5 4 3 3 3 4 5 6 9 8 6 6 4 3 4 3 3
8 9 10 9 10 9 10 10 10 9 9 8 8 8 7 7 7 7 6 6 7 7 9 8 7 9 9 9 7 7 7 8 6 8 5 6 7 8 5 4 4 3 3
9 11 10 9 10 9 9 9 9 9 9 8 8 7 7 7 6 6 6 7 7 7 8 7 9 11 10 7 8 8 9 9 7 8 5 6 6 5 5 5 7 3 4
Wind_Direction
249 200 173 173 169 162 168 163 167 157 159 161 160 154 156 157 150 141 130 132 142 155 155 154 175 179 182 154 117 93 92 106 291 311 318 285 297 326 340 346 346 347 354
296 239 198 168 163 166 168 165 158 163 164 161 160 159 160 160 154 149 152 156 162 168 162 157 178 184 183 160 131 128 127 107 134 311 287 300 288 342 330 344 346 347 356
315 267 229 185 172 175 167 156 159 158 162 157 162 166 162 159 155 156 151 152 156 171 155 167 168 175 176 182 159 158 56 26 205 225 287 298 296 25 343 337 325 351 354
321 278 229 199 189 181 170 163 161 165 163 164 169 163 157 154 153 151 150 148 150 159 167 173 168 174 182 177 169 172 154 154 298 282 294 337 321 347 9 352 355 2 347
312 294 238 211 178 149 148 153 142 160 169 162 156 154 146 151 156 155 150 161 154 150 157 161 175 180 166 161 172 173 181 169 237 13 352 338 338 346 7 334 296 316 292
292 289 252 199 170 173 164 159 158 162 154 156 167 164 160 167 173 166 162 165 176 165 167 170 167 173 184 181 187 191 188 189 181 73 356 340 346 12 337 338 324 1 346
282 280 258 205 191 182 176 172 177 180 174 179 179 175 171 164 173 175 176 172 175 172 170 173 166 174 175 189 185 178 190 220 205 185 218 292 305 71 323 323 331 345 309
288 276 268 215 199 185 181 188 185 179 186 185 182 178 166 174 176 178 174 161 163 163 167 171 166 170 177 176 163 154 162 159 132 180 188 213 222 330 357 304 298 297 259
291 279 261 228 207 190 192 191 188 180 183 187 181 172 174 175 179 176 165 157 163 164 168 169 163 165 179 178 152 143 157 160 164 249 206 176 129 50 29 30 28 56 285
298 291 269 230 218 200 196 193 187 187 189 175 177 183 174 170 183 180 169 165 168 165 168 179 184 174 183 182 158 156 157 172 182 355 9 70 76 57 55 39 357 79 280
300 296 275 229 219 209 200 191 180 177 166 173 176 175 176 175 183 185 180 175 175 167 175 182 187 190 186 183 172 164 178 156 187 153 169 64 70 77 80 64 29 86 279
301 294 279 227 210 207 194 181 173 169 168 173 171 171 182 177 182 191 189 188 178 172 184 173 182 190 189 186 169 184 180 137 124 113 113 161 144 190 232 116 114 86 50
301 293 281 226 207 199 191 181 173 171 176 177 181 181 181 178 183 190 192 193 193 184 154 181 178 184 182 185 178 181 147 137 141 125 175 212 185 188 134 91 165 182 77
294 289 279 218 201 193 193 187 186 180 178 178 180 183 173 168 176 178 186 192 188 174 171 163 171 166 155 154 159 174 155 167 165 164 173 202 100 90 95 131 134 199 115
292 287 275 218 198 193 196 194 196 197 186 181 189 180 166 181 196 186 182 179 181 168 128 103 128 113 145 151 151 176 168 155 155 160 144 162 138 109 105 79 182 88 93
292 287 276 219 194 190 186 187 211 197 196 189 181 179 188 187 175 185 188 188 179 161 129 161 175 179 185 182 183 188 186 185 184 158 146 153 158 139 135 75 82 102 125
281 282 273 240 197 183 183 177 178 181 187 183 178 183 177 172 169 182 187 183 180 169 181 183 183 190 193 183 185 184 190 195 157 170 161 170 145 127 130 126 110 112 92
276 275 266 226 193 181 180 174 174 173 176 180 182 176 178 180 173 187 181 169 176 191 189 184 190 186 187 182 185 190 179 159 179 172 169 166 164 145 136 151 159 142 132
276 273 276 209 181 162 164 160 162 159 160 156 134 144 161 161 169 174 172 173 180 189 191 184 173 178 188 178 180 182 179 179 174 170 170 166 165 149 152 157 140 143 128
268 255 259 160 150 140 148 153 152 153 149 155 165 152 144 137 164 169 164 146 175 185 178 176 172 168 180 180 175 173 170 161 167 171 173 171 168 167 158 154 164 148 162
253 284 85 80 88 95 103 110 113 107 103 93 90 119 155 161 161 162 172 178 176 171 173 175 171 184 182 170 161 164 173 171 168 163 165 169 160 167 162 144 145 142 133
59 63 65 72 79 81 79 80 85 88 84 84 67 65 81 74 72 70 65 54 37 24 224 173 170 170 167 164 161 160 167 167 160 158 158 160 166 158 146 139 144 135 138
82 84 79 74 76 81 77 76 79 80 77 70 66 65 62 65 65 62 58 43 35 27 16 54 109 108 99 109 133 155 165 176 172 157 156 159 163 162 155 147 147 128 151
74 79 80 73 71 75 78 80 79 76 79 75 72 68 66 65 64 59 52 45 44 40 38 45 52 72 84 82 89 101 106 122 138 151 147 155 159 150 141 128 144 134 141
73 77 77 79 79 79 81 77 76 76 75 74 74 71 68 66 64 57 53 53 53 53 46 44 47 52 58 68 73 81 104 115 120 131 132 141 150 149 145 140 137 128 121
71 73 72 75 75 76 77 78 74 72 73 70 69 67 66 65 59 56 51 52 55 53 50 44 44 47 48 51 68 74 83 90 93 106 118 130 136 134 136 138 147 141 130